Regional Weather Roundup
Issued by NWS

Home | Current Version | Previous Version | Graphics & Text | Print | Product List | Glossary Off
Versions: 1 2 3 4 5 6 7 8 9 10 11 12 13 14 15 16 17 18 19 20 21 22 23 24 25 26 27 28 29 30 31 32 33 34 35 36 37 38 39 40 41 42 43 44 45 46 47 48 49 50

000
ASUS43 KMPX 231601
RWRMN
WEATHER ROUNDUP FOR MINNESOTA
NATIONAL WEATHER SERVICE TWIN CITIES/CHANHASSEN MN
1100 AM CDT WED MAY 23 2018


NOTE: "FAIR" INDICATES FEW OR NO CLOUDS BELOW 12,000 FEET WITH NO
SIGNIFICANT WEATHER AND/OR OBSTRUCTIONS TO VISIBILITY. N/A MEANS
CURRENT SKY AND/OR WEATHER CONDITIONS ARE NOT AVAILABLE.

MNZ060>063-068>070-231700-
   Twin Cities Metro

CITY           SKY/WX    TMP DP  RH WIND       PRES   REMARKS
TWIN CITIES    CLOUDY    72  63  73 SW13G18   30.14R
ST PAUL        FAIR      72  62  71 S6        30.13R
CRYSTAL        FAIR      72  60  66 S12       30.12R
BLAINE         PTSUNNY   73  63  68 SE10      30.13R
LAKEVILLE      FAIR      72  61  68 S5        30.12R
EDEN PRAIRIE   FAIR      72  62  71 W7        30.12R
SOUTH ST PAUL  FAIR      73  61  65 SW5       30.13R
LAKE ELMO      FAIR      72  63  73 SW6       30.13R
$$
MNZ001>005-007-008-013>017-022>024-027-028-231700-
   Northwest Minnesota

CITY           SKY/WX    TMP DP  RH WIND       PRES   REMARKS
BEMIDJI        FAIR      74  60  60 SE10      30.09R
HALLOCK        FAIR      79  57  47 SE10G17   30.01F
ROSEAU         FAIR      77  59  53 SE8       30.05F
WARROAD        FAIR      72  63  73 NE6       30.07F
THIEF RVR FALL FAIR      76  58  53 SE8       30.05F
CROOKSTON      FAIR      79  59  50 SE10      30.01F
FOSSTON        FAIR      79  55  44 SE7       30.05S
DETROIT LAKES  FAIR      72  61  68 SE9       30.05S
MOORHEAD       FAIR      79  61  53 SE12      29.99S
PARK RAPIDS    FAIR      74  60  61 SE7       30.07S
MAHNOMEN       FAIR      77  58  52 SE9       30.04R
$$
MNZ006-009>011-018-025>026-231700-
   North Central Minnesota

CITY           SKY/WX    TMP DP  RH WIND       PRES   REMARKS
BAUDETTE       FAIR      76  56  49 E8        30.07F
FLAG ISLAND    FAIR      64  57  77 S5        30.07F
INTL FALLS     FAIR      76  56  49 SE8       30.09F
WASKISH          N/A     75  55  50 SE7       30.08F
BIG FORK       FAIR      75  55  50 SE6       30.10F
LONGVILLE      FAIR      75  59  57 S7        30.10R
CRANE LAKE     FAIR      73  55  53 CALM      30.12F
ORR            FAIR      75  52  43 S6        30.08F
COOK           FAIR      73  54  49 S3        30.11F
WALKER         FAIR      71  59  66 E3        30.09R
$$
MNZ012-019>021-037-231700-
   Northeast Minnesota

CITY           SKY/WX    TMP DP  RH WIND       PRES   REMARKS
DULUTH         FAIR      74  53  48 SE10      30.13F
ELY            PTSUNNY   75  52  43 SW3       30.12F
HIBBING        FAIR      73  54  51 S8        30.12S
EVELETH        FAIR      73  55  53 SW3       30.13F
DULUTH HARBOR  FAIR      68  59  73 E6        30.12F
TWO HARBORS    FAIR      81  61  50 S9        30.11S
SILVER BAY     FAIR      79  54  41 S9        30.10S
GRAND MARAIS     N/A     47  38  71 E5        30.14S
G MARAIS ARPRT FAIR      75  37  25 SE6       30.14F
$$
MNZ029>031-032-039>041-046>048-054>057-064-231700-
   West Central Minnesota

CITY           SKY/WX    TMP DP  RH WIND       PRES   REMARKS
FERGUS FALLS   FAIR      72  63  73 SE13      29.99R
WHEATON        CLOUDY    70  64  83 SE15      30.04R
MORRIS         CLOUDY    75  63  64 SE21G28   30.04F
ALEXANDRIA     FAIR      73  62  68 SE15      30.09R
ELBOW LAKE     LGT RAIN  70  63  77 E12       30.05R
WADENA         FAIR      73  63  68 E9        30.06F
GLENWOOD       FAIR      70  63  78 S14       30.10R
APPLETON       CLOUDY    72  63  73 SE12      30.05S
BENSON         CLOUDY    70  61  73 S13       30.09S
ORTONVILLE     CLOUDY    70  63  78 S15G22    30.05R
MADISON        CLOUDY    72  64  78 SE16      30.05F
WILLMAR        PTSUNNY   63  61  94 CALM      30.11F
$$
MNZ033>034-036-042>043-049>051-058-059-231700-
   Central Minnesota

CITY           SKY/WX    TMP DP  RH WIND       PRES   REMARKS
ST CLOUD       PTSUNNY   70  61  73 S8        30.11R
SAUK CENTRE    PTSUNNY   68  62  79 SE14G20   30.10R
PAYNESVILLE    FAIR      66  63  87 SE7       30.11F
PINE RIVER     FAIR      72  57  60 SE8       30.12S
BRAINERD       FAIR      77  61  57 E8        30.09F
STAPLES        FAIR      73  59  60 E5        30.07F
LONG PRAIRIE   FAIR      70  61  73 SE12      30.09S
LITTLE FALLS   FAIR      72  63  73 SE7       30.09F
LITCHFIELD     LGT RAIN  68  63  83 SW3       30.13R
BUFFALO        PTSUNNY   71  60  68 S12       30.14R
MAPLE LAKE     PTSUNNY   72  63  72 S3        30.14R
HUTCHINSON     LGT RAIN  68  62  82 SW5       30.15R
$$
MNZ037-044-045-052-053-231700-
   East Central Minnesota

CITY           SKY/WX    TMP DP  RH WIND       PRES   REMARKS
PRINCETON      FAIR      75  63  64 SE6       30.12R
MORA           FAIR      70  59  68 E7        30.13R
CAMBRIDGE      FAIR      75  61  60 SE5       30.11R
RUSH CITY      FAIR      74  62  65 SE6       30.11S
MOOSE LAKE     FAIR      73  55  53 SE3       30.11S
HINCKLEY       FAIR      72  61  68 E7        30.12S
CLOQUET        FAIR      73  52  46 S8        30.12F
MCGREGOR       FAIR      73  59  60 SE8       30.12R
$$
MNZ071>073-080-081-089-090-097-098-231700-
   Southwest Minnesota

CITY           SKY/WX    TMP DP  RH WIND       PRES   REMARKS
MONTEVIDEO     CLOUDY    64  64 100 S8        30.08R
GRANITE FALLS  LGT RAIN  65  62  91 SE26G33   30.08F
CANBY          CLOUDY    68  64  85 E16       30.05F
MARSHALL       TSTM      64  61  90 SE17G28   30.06F FOG
REDWOOD FALLS  RAIN      62  62 100 SE5       30.13S FOG
OLIVIA         RAIN      63  59  88 S7        30.13R
PIPESTONE      LGT RAIN  72  63  73 SE14G23   30.09R
WINDOM         MOSUNNY   72  52  49 SE8       30.10R
WORTHINGTON      N/A     74  63  68 SE23G29   30.09R
JACKSON        CLOUDY    72  61  68 S16G22    30.12R
TRACY          TSTM      64  62  94 NE7       30.13F
SLAYTON        PTSUNNY   71  63  77 SE18G24   30.11R
$$
MNZ065>067-074>077-082>085-091>093-231700-
   South Central Minnesota

CITY           SKY/WX    TMP DP  RH WIND       PRES   REMARKS
MANKATO        FAIR      70  64  81 CALM      30.13R
NEW ULM        LGT RAIN  64  61  88 N3        30.14S
ST JAMES       CLOUDY    72  63  73 SW5       30.13R
FAIRMONT       CLOUDY    73  64  73 S17       30.10R
GLENCOE        PTSUNNY   68  61  78 S5        30.14R
FARIBAULT      FAIR      73  61  64 CALM      30.12R
OWATONNA       FAIR      73  64  73 S9        30.11R
WASECA         FAIR      72  63  73 S3        30.13R
ALBERT LEA     FAIR      72  57  60 S15G23    30.11R
$$
MNZ078>079-086>088-094>096-231700-
   Southeast Minnesota

CITY           SKY/WX    TMP DP  RH WIND       PRES   REMARKS
ROCHESTER      FAIR      74  63  68 S13G20    30.13S
RED WING       FAIR      73  59  60 S5        30.11S
STANTON        FAIR      74  61  65 SW9       30.11R
DODGE CENTER   FAIR      72  61  68 S13       30.12F
WINONA         FAIR      70  63  78 SE7       30.11F
AUSTIN         FAIR      70  63  78 S15       30.12R
PRESTON        FAIR      71  62  73 S13       30.15R
$$
ABBREVIATIONS USED IN REMARKS
   TC - TEMPERATURES IN CELSIUS
  WCI - WIND CHILL INDEX
   HX - HEAT INDEX
  VSB - VISIBILITY
$$



USA.gov is the U.S. government's official web portal to all federal, state and local government web resources and services.